Doha, Qatar

8:30 PM +03 on October 17, 2017 (GMT +0300)
Doha International

Weather History for OTBD - May, 2014

Change the Weather History Date:

Tuesday, May 20, 2014

  Actual Average Record
Temperature  
Mean Temperature 88 °F -  
Max Temperature 97 °F 104 °F 113 °F (1998)
Min Temperature 80 °F 80 °F 78 °F (1999)
Cooling Degree Days 24    
Growing Degree Days 38 (Base 50)    
Moisture  
Dew Point 71 °F    
Average Humidity 59    
Maximum Humidity 79    
Minimum Humidity 23    
Precipitation  
Precipitation 0.00 in 0.00 in - ()
Sea Level Pressure  
Sea Level Pressure 29.80 in    
Wind  
Wind Speed 4 mph ()    
Max Wind Speed 13 mph    
Max Gust Speed -    
Visibility 7.0 miles    
Events      
Averages and records for this station are not official NWS values.
T = Trace of Precipitation, MM = Missing Value Source: Averaged Metar Reports

Daily Weather History Graph

Daily Weather History Graph

Search for Another Location

Airport or City:

Trip Planner

Search our weather history database for the weather conditions in past years. The results will help you decide how hot, cold, wet, or windy it might be!

Date:

Astronomy

May. 20, 2014 Rise Set
Actual Time 4:46 AM +03 6:13 PM +03
Civil Twilight 4:21 AM +03 6:38 PM +03
Nautical Twilight 3:52 AM +03 7:08 PM +03
Astronomical Twilight 3:21 AM +03 7:39 PM +03
Moon 11:25 PM +03 (5/20) 10:13 AM +03 (5/20)
Length of Visible Light 14h 17m
Length of Day
13h 27m
Waning Gibbous, 63% of the Moon is Illuminated
May 20
Waning Gibbous
May 21
Last Quarter
May 28
New
Jun 5
First Quarter
Jun 13
Full

Hourly Weather History & Observations

Time (+03) Temp. Heat Index Dew Point Humidity Pressure Visibility Wind Dir Wind Speed Gust Speed Precip Events Conditions
12:00 AM 83 °F - 68 °F 51% 29.81 in 7 mi 2.3 mph - -  
12:00 AM 82.4 °F 85.4 °F 68.0 °F 62% 29.80 in - Variable 2.3 mph - N/A   Clear
12:30 AM 82.4 °F 86.3 °F 69.8 °F 66% 29.77 in - Variable 2.3 mph - N/A   Clear
1:00 AM 82.4 °F 87.2 °F 71.6 °F 70% 29.77 in - Calm Calm - N/A   Clear
1:30 AM 82.4 °F 86.3 °F 69.8 °F 66% 29.77 in - Variable 1.2 mph - N/A   Clear
2:00 AM 82.4 °F 86.3 °F 69.8 °F 66% 29.77 in - East 3.5 mph - N/A   Clear
2:30 AM 80.6 °F 83.9 °F 69.8 °F 70% 29.77 in - Variable 1.2 mph - N/A   Clear
3:00 AM 81 °F - 70 °F 61% 29.80 in 7 mi Calm Calm - -   Clear
3:00 AM 80.6 °F 83.9 °F 69.8 °F 70% 29.80 in - Calm Calm - N/A   Clear
3:30 AM 80.6 °F 84.6 °F 71.6 °F 74% 29.80 in - Calm Calm - N/A   Clear
4:00 AM 80.6 °F 84.6 °F 71.6 °F 74% 29.80 in - Calm Calm - N/A   Clear
4:30 AM 80.6 °F 84.6 °F 71.6 °F 74% 29.80 in - Calm Calm - N/A   Clear
5:00 AM 80.6 °F 83.9 °F 69.8 °F 70% 29.80 in - Variable 2.3 mph - N/A   Clear
5:30 AM 82.4 °F 87.2 °F 71.6 °F 70% 29.83 in - Variable 2.3 mph - N/A   Clear
6:00 AM 83 °F - 72 °F 63% 29.85 in 6 mi SW 3.5 mph - -  
6:00 AM 82.4 °F 88.2 °F 73.4 °F 74% 29.83 in - SW 3.5 mph - N/A   Clear
6:30 AM 84.2 °F 88.4 °F 69.8 °F 62% 29.83 in - SSW 3.5 mph - N/A   Clear
7:00 AM 86.0 °F 93.4 °F 73.4 °F 66% 29.86 in - South 3.5 mph - N/A   Clear
8:00 AM 87.8 °F 93.8 °F 71.6 °F 58% 29.86 in - SSW 3.5 mph - N/A   Clear
9:00 AM 91 °F - 69 °F 40% 29.88 in 6 mi South 4.6 mph - -  
9:00 AM 91.4 °F 96.8 °F 69.8 °F 49% 29.86 in - South 4.6 mph - N/A   Clear
10:00 AM 95.0 °F 93.7 °F 57.2 °F 28% 29.86 in - SE 10.4 mph - N/A   Clear
11:00 AM 93.2 °F 94.9 °F 64.4 °F 38% 29.86 in - SE 10.4 mph - N/A   Clear
12:00 PM 95 °F - 61 °F 23% 29.86 in 7 mi SE 10.4 mph - -   Clear
12:00 PM 95.0 °F 95.2 °F 60.8 °F 32% 29.86 in - SE 10.4 mph - N/A   Clear
1:00 PM 95.0 °F 98.5 °F 66.2 °F 39% 29.83 in - East 11.5 mph - N/A   Clear
2:00 PM 95.0 °F 98.5 °F 66.2 °F 39% 29.80 in - ESE 10.4 mph - N/A   Clear
2:30 PM 95.0 °F 103.2 °F 71.6 °F 47% 29.80 in - ESE 12.7 mph - N/A   Clear
3:00 PM 94 °F - 71 °F 38% 29.80 in 7 mi ESE 9.2 mph - -  
3:00 PM 93.2 °F 100.5 °F 71.6 °F 49% 29.80 in - ESE 9.2 mph - N/A   Clear
3:30 PM 93.2 °F 98.8 °F 69.8 °F 46% 29.77 in - ESE 9.2 mph - N/A   Clear
4:00 PM 93.2 °F 98.8 °F 69.8 °F 46% 29.77 in - ESE 6.9 mph - N/A   Clear
4:30 PM 91.4 °F 95.4 °F 68.0 °F 46% 29.77 in - East 8.1 mph - N/A   Clear
5:00 PM 91.4 °F 96.8 °F 69.8 °F 49% 29.77 in - East 6.9 mph - N/A   Clear
5:30 PM 89.6 °F 96.2 °F 71.6 °F 55% 29.77 in - East 6.9 mph - N/A   Clear
6:00 PM 89 °F - 71 °F 46% 29.77 in 9 mi East 5.8 mph - -  
6:00 PM 89.6 °F 96.2 °F 71.6 °F 55% 29.77 in - East 5.8 mph - N/A   Clear
6:30 PM 87.8 °F 93.8 °F 71.6 °F 58% 29.77 in - East 4.6 mph - N/A   Clear
7:00 PM 86.0 °F 95.1 °F 75.2 °F 70% 29.77 in - East 4.6 mph - N/A   Clear
7:30 PM 86.0 °F 95.1 °F 75.2 °F 70% 29.77 in - East 5.8 mph - N/A   Clear
8:00 PM 86.0 °F 95.1 °F 75.2 °F 70% 29.77 in - ENE 4.6 mph - N/A   Clear
8:30 PM 86.0 °F 96.9 °F 77.0 °F 74% 29.77 in - East 4.6 mph - N/A   Clear
9:00 PM 85 °F - 76 °F 69% 29.80 in 7 mi East 5.8 mph - -  
9:00 PM 84.2 °F 94.1 °F 77.0 °F 79% 29.80 in - East 5.8 mph - N/A   Clear
10:00 PM 84.2 °F 92.3 °F 75.2 °F 74% 29.77 in - East 4.6 mph - N/A   Clear
10:30 PM 84.2 °F 94.1 °F 77.0 °F 79% 29.74 in - East 5.8 mph - N/A   Clear
11:00 PM 84.2 °F 92.3 °F 75.2 °F 74% 29.77 in - ENE 4.6 mph - N/A   Clear
11:30 PM 84.2 °F 92.3 °F 75.2 °F 74% 29.77 in - ENE 3.5 mph - N/A   Clear